Location: Domont
(49.0278°N, 2.3264°E)
Time: 03:49:19
(UTC+00:00)

Cosmos 1626 Rocket - Pass Details

Date: 16 October 2021
Orbit: 603 x 631 km, 82.5° (Epoch: 29 November)

Event Time Altitude Azimuth Distance (km) Brightness Sun altitude
Rises 19:20:59 0° 347° (NNW) 2,879 7.3 -24.0°
Reaches altitude 10° 19:23:14 10° 345° (NNW) 1,967 6.5 -24.3°
Maximum altitude 19:27:32 65° 264° (W) 668 3.8 -25.0°
Enters shadow 19:28:13 55° 216° (SW) 731 3.9 -25.1°
